Погода в Красном

Беларусь     52°28′17″N   30°55′19″E
темп.,
°C
ветер,
м/с
пор.,
м/с
влажн.,
%
обл.,
%
осадки,
мм/ч
давл.,
гПа
погр.,
м
26 февраля, пт
пт2600:00+3з4910099 0.0 1024165
03:00+2зюз4810099 0.0 1023190
06:00+2зюз41099100 0.0 1021243
09:00+3зюз51199100 0.0 1019283
12:00+3зюз510100100 0.0 1018289
15:00+4з51298100 0.0 1017374
18:00+3з51391100 0.0 1016341
21:00+2з51388100 0.0 1015310
27 февраля, сб
сб2700:00+2з51290100 0.0 1014350
03:00+2з51192100 0.0 1014355
06:00+2з51192100 0.1 1013438
09:00+2зсз51198100 0.1 1013508
12:00+2зсз41098100 0.1 1013387
15:00+2зсз41099100 0.5 1014442
18:00+2ссз3998100 0.4 1015383
21:000ссз4994100 0.4 1017344
28 февраля, вс
вс2800:00+1ссз599792 0.0 1019440
03:00+1ссз499896 0.2 1021504
06:00−1ссз599595 0.1 1021403
09:000ссз588898 0.2 1023727
12:00+1ссз578097 0.1 1023799
15:00+2сз577898 0.2 1023864
18:00+1сз3781100 0.1 1023549
21:000сз2684100 0.1 1024239
1 марта, пн
пн100:00−1сз359292 0.0 1025156
03:00−2ссз249550 0.0 1027120
06:00−2ссз25961 0.0 1027157
09:00−1ссз259325 0.0 1029269
12:00+2сз368286 0.0 1030636
15:00+3сз467793 0.1 1030744
18:00+2зсз368594 0.1 1029172
21:00+1з378897 0.1 1030176
2 марта, вт
вт200:00+2зсз4994100 0.0 1029292
03:00+1з4896100 0.0 1028211
06:00+1з51195100 0.0 1026347
09:00+2сз51190100 0.0 1026461
12:00+4сз61179100 0.0 1027589
15:00+6сз51072100 0.0 1026601
18:00+5зсз4108147 0.0 1026256
21:00+3зсз4118723 0.0 1026267